[[{"header":{"parameterUnit":"m.s-1","parameterCategory":1,"la1":30.2991,"la2":30.254,"lo1":-89.0895,"lo2":-89.0444,"dy":0.0017,"dx":0.0017,"nx":28,"ny":28,"refTime":"2025-05-14T21:00:00:Z","depth":0,"parameterNumber":2,"parameterNumberName":"U-component_of_WINDS"},"data":[0,0,0,0,0,0,0,0,0,0,0,0,0,0,0,0,0,0,0,0,0,0,0,0,0,0,0,0,0,0,0,0,0,0,0,0,0,0,0,0,0,0,0,0,0,0,0,0,0,0,0,0,0,0,0,0,0,0,-0.2149,-0.2148,0,-0.2065,-0.2064,-0.2063,-0.2038,-0.2039,-0.2039,-0.204,-0.1956,-0.1954,-0.1951,0,0,0,0,0,0,0,0,0,0,0,0,0,-0.229,-0.2288,-0.2149,-0.2148,-0.2146,-0.2065,-0.2064,-0.2063,-0.2038,-0.2039,-0.2039,-0.204,-0.1957,-0.1954,-0.1951,0,0,0,0,0,0,0,0,0,0,0,0,0,-0.222,-0.2287,-0.2149,-0.2124,-0.2121,-0.2065,-0.2064,-0.2062,-0.2038,-0.2039,-0.2039,-0.204,-0.1958,-0.1954,-0.195,-0.1913,0,0,-0.1938,-0.1937,0,0,0,0,0,0,0,0,-0.2224,-0.2215,-0.2129,-0.2126,-0.2122,-0.2063,-0.2083,-0.2012,-0.2038,-0.207,-0.204,-0.204,-0.1991,-0.1985,-0.1968,-0.1909,-0.1906,-0.1938,-0.1936,-0.1934,-0.1933,0,0,0,0,0,0,0,-0.2229,-0.2218,-0.2116,-0.2128,-0.2124,-0.2119,-0.2109,-0.207,-0.2028,-0.2067,-0.2065,-0.2055,-0.199,-0.1971,-0.1965,-0.1904,-0.1938,-0.1935,-0.1932,-0.1931,-0.1812,-0.1811,0,0,0,0,0,0,-0.2237,-0.2222,-0.2118,-0.2113,-0.2176,-0.2116,-0.2105,-0.2081,-0.2028,-0.2021,-0.2055,-0.2054,-0.1978,-0.197,-0.1962,-0.1915,-0.1934,-0.193,-0.1928,-0.1813,-0.1812,-0.1811,0,0,0,0,0,0,-0.2241,-0.2228,-0.2122,-0.2167,-0.2153,-0.2112,-0.2086,-0.2079,-0.2061,-0.2019,-0.2012,-0.2044,-0.1978,-0.1968,-0.1925,-0.1912,-0.1929,-0.1925,-0.1814,-0.1812,-0.1811,-0.182,0,0,0,0,0,0,-0.2245,-0.223,-0.2214,-0.2167,-0.2151,-0.2085,-0.2085,-0.2077,-0.2054,-0.2053,-0.2007,-0.2,-0.1978,-0.1931,-0.1922,-0.1907,-0.1922,-0.1815,-0.1813,-0.1812,-0.1821,-0.182,-0.1818,0,0,0,0,0,-0.225,-0.2221,-0.2214,-0.2201,-0.2131,-0.2084,-0.2075,-0.205,-0.2053,-0.2038,-0.2011,-0.2001,-0.1915,-0.1927,-0.1916,-0.19,-0.1815,-0.1814,-0.1812,-0.1822,-0.182,-0.1819,0,0,0,0,0,0,-0.2269,-0.2214,-0.2206,-0.216,-0.2127,-0.208,-0.206,-0.2049,-0.2015,-0.2015,-0.1986,-0.1976,-0.1935,-0.1914,-0.1928,-0.1861,-0.1865,-0.1861,-0.1877,-0.1875,-0.1873,-0.1879,-0.1919,0,0,0,0,0,-0.2267,-0.2233,-0.2188,-0.2153,-0.2136,-0.2101,-0.208,-0.2063,-0.2028,-0.2014,-0.1984,-0.1951,-0.1917,-0.1895,-0.1861,-0.1818,-0.1808,-0.1802,-0.1801,-0.18,-0.1796,-0.1772,-0.1769,-0.1805,-0.1805,-0.1805,0,0,-0.2265,-0.2231,-0.2211,-0.2155,-0.2128,-0.2094,-0.2089,-0.2054,-0.2029,-0.2009,-0.1967,-0.1944,-0.1905,-0.1863,-0.1842,-0.1843,-0.1784,-0.1797,-0.1797,-0.1794,-0.177,-0.1767,-0.1764,-0.1804,-0.1804,-0.1804,0,0,-0.2242,-0.2213,-0.218,-0.2152,-0.211,-0.2087,-0.2079,-0.2034,-0.2018,-0.1975,-0.1959,-0.193,-0.1871,-0.1844,-0.1822,-0.179,-0.178,-0.178,-0.1773,-0.175,-0.1747,-0.1744,-0.1733,-0.1729,-0.1777,-0.1777,-0.1777,0,-0.2244,-0.2191,-0.2165,-0.2129,-0.2106,-0.2086,-0.2052,-0.2027,-0.1977,-0.1961,-0.1963,-0.1888,-0.1861,-0.1812,-0.1804,-0.1787,-0.1778,-0.1785,-0.175,-0.1747,-0.1744,-0.1732,-0.1728,-0.1777,-0.1777,-0.1777,-0.1777,0,-0.2196,-0.216,-0.2139,-0.2089,-0.2063,-0.2029,-0.1998,-0.1975,-0.1961,-0.1938,-0.1895,-0.1861,-0.182,-0.1808,-0.1794,-0.1756,-0.1758,-0.1755,-0.1758,-0.1741,-0.173,-0.1725,-0.1778,-0.1778,-0.1778,-0.1778,0,0,-0.2182,-0.2118,-0.2111,-0.2088,-0.204,-0.2012,-0.1978,-0.1937,-0.1918,-0.1884,-0.1855,-0.1806,-0.1802,-0.1778,-0.1762,-0.1742,-0.1718,-0.1741,-0.174,-0.1737,-0.1675,-0.1677,-0.1672,-0.1712,-0.1711,-0.171,-0.1678,0,-0.2153,-0.2089,-0.2064,-0.2013,-0.1979,-0.196,-0.1931,-0.1899,-0.1877,-0.1846,-0.1822,-0.1788,-0.1786,-0.1772,-0.1751,-0.1725,-0.1705,-0.1727,-0.1684,-0.1683,-0.1693,-0.1666,-0.1668,-0.1639,-0.1673,-0.1673,-0.1672,0,-0.211,-0.2075,-0.202,-0.1976,-0.1961,-0.1934,-0.1895,-0.1865,-0.1829,-0.1815,-0.1788,-0.1773,-0.1737,-0.1743,-0.1694,-0.171,-0.1691,-0.1676,-0.1674,-0.1668,-0.1676,-0.1659,-0.1629,-0.1625,-0.1665,-0.1665,-0.1666,0,-0.2105,-0.2044,-0.2003,-0.1984,-0.1932,-0.1914,-0.1892,-0.1856,-0.1833,-0.1799,-0.1784,-0.1747,-0.1726,-0.1698,-0.1673,-0.168,-0.1626,-0.1631,-0.1614,-0.1614,-0.1602,-0.1603,-0.1569,-0.1592,-0.1592,-0.1592,-0.1592,0,-0.2074,-0.2041,-0.1999,-0.1974,-0.1937,-0.1909,-0.1873,-0.185,-0.1819,-0.1789,-0.1771,-0.1745,-0.1714,-0.1683,-0.1664,-0.1626,-0.1617,-0.1605,-0.16,-0.1606,-0.1607,-0.1592,-0.1594,-0.1591,-0.1591,-0.1591,-0.1591,0,-0.2062,-0.2032,-0.1986,-0.1941,-0.1928,-0.1903,-0.1865,-0.184,-0.1817,-0.178,-0.177,-0.1735,-0.1698,-0.1671,-0.1624,-0.1611,-0.157,-0.1566,-0.1582,-0.1579,-0.1564,-0.1565,-0.1517,-0.151,-0.1539,-0.1539,-0.1539,0,-0.2044,-0.2018,-0.1969,-0.1947,-0.1925,-0.1891,-0.1867,-0.1839,-0.1815,-0.1772,-0.1753,-0.1715,-0.1682,-0.1625,-0.1596,-0.1559,-0.1553,-0.1539,-0.1548,-0.1555,-0.1552,-0.1554,-0.1551,-0.1538,-0.1538,-0.1537,-0.1537,0,-0.2015,-0.2002,-0.1967,-0.1927,-0.1899,-0.1867,-0.1835,-0.1819,-0.1785,-0.176,-0.1721,-0.1696,-0.1647,-0.161,-0.1571,-0.1549,-0.1538,-0.1535,-0.1529,-0.1534,-0.1544,-0.1538,-0.1578,-0.1536,-0.1536,-0.1536,-0.1536,-0.1536,-0.1999,-0.1974,-0.1936,-0.1898,-0.1871,-0.1841,-0.1815,-0.179,-0.1756,-0.1714,-0.17,-0.166,-0.1626,-0.1572,-0.155,-0.1519,-0.1519,-0.1511,-0.1509,-0.1507,-0.1507,-0.155,-0.1512,-0.1512,-0.1512,-0.1512,-0.1512,0,-0.1968,-0.1943,-0.1908,-0.1863,-0.1833,-0.1825,-0.1789,-0.1765,-0.1729,-0.1698,-0.1666,-0.1622,-0.1586,-0.1554,-0.1516,-0.1498,-0.1492,-0.1489,-0.1489,-0.1485,-0.1509,-0.1517,-0.1494,-0.1494,-0.1494,-0.1494,-0.1494,-0.1494,-0.1949,-0.1907,-0.189,-0.1834,-0.1809,-0.1769,-0.1749,-0.1722,-0.1696,-0.1647,-0.1616,-0.1596,-0.1564,-0.1524,-0.1491,-0.1482,-0.1469,-0.1467,-0.1458,-0.1481,-0.1483,-0.1485,-0.1493,-0.1465,-0.1465,-0.1436,-0.1436,-0.1436]},{"header":{"parameterUnit":"m.s-1","parameterCategory":1,"la1":30.2991,"la2":30.254,"lo1":-89.0895,"lo2":-89.0444,"dy":0.0017,"dx":0.0017,"nx":28,"ny":28,"refTime":"2025-05-14T21:00:00:Z","depth":0,"parameterNumber":3,"parameterNumberName":"V-component_of_WINDS"},"data":[0,0,0,0,0,0,0,0,0,0,0,0,0,0,0,0,0,0,0,0,0,0,0,0,0,0,0,0,0,0,0,0,0,0,0,0,0,0,0,0,0,0,0,0,0,0,0,0,0,0,0,0,0,0,0,0,0,0,4.7644,4.7644,0,4.7659,4.7659,4.7659,4.7618,4.7617,4.7616,4.7615,4.7628,4.7629,4.7631,0,0,0,0,0,0,0,0,0,0,0,0,0,4.7578,4.758,4.7644,4.7644,4.7644,4.7659,4.7659,4.7659,4.7619,4.7617,4.7615,4.7614,4.7627,4.7629,4.7631,0,0,0,0,0,0,0,0,0,0,0,0,0,4.7601,4.758,4.7644,4.7626,4.7624,4.7658,4.7659,4.7659,4.7619,4.7617,4.7615,4.7613,4.7627,4.7629,4.7631,4.7683,0,0,4.7638,4.7639,0,0,0,0,0,0,0,0,4.76,4.7604,4.7628,4.7627,4.7625,4.7635,4.764,4.7667,4.7619,4.7621,4.7615,4.7612,4.7631,4.7633,4.764,4.7683,4.7684,4.7638,4.764,4.7641,4.7641,0,0,0,0,0,0,0,4.7598,4.7603,4.7649,4.7628,4.7627,4.7616,4.7617,4.7645,4.7636,4.7621,4.7618,4.762,4.763,4.7638,4.764,4.7684,4.7638,4.764,4.7642,4.7642,4.7772,4.7773,0,0,0,0,0,0,4.7599,4.7602,4.7649,4.765,4.7608,4.7619,4.762,4.7634,4.7636,4.7635,4.7622,4.7618,4.7635,4.7637,4.764,4.7702,4.7641,4.7643,4.7644,4.7769,4.7772,4.7774,0,0,0,0,0,0,4.7598,4.7604,4.7648,4.7625,4.763,4.7622,4.7637,4.7635,4.7643,4.7637,4.7635,4.7631,4.7634,4.7637,4.7673,4.7702,4.7644,4.7646,4.7767,4.777,4.7773,4.7826,0,0,0,0,0,0,4.7596,4.7604,4.7624,4.7626,4.7631,4.7682,4.7639,4.7636,4.7647,4.7642,4.7645,4.7644,4.7632,4.767,4.7675,4.7704,4.7648,4.7764,4.7768,4.7772,4.7822,4.783,4.7838,0,0,0,0,0,4.7594,4.7637,4.7625,4.7631,4.7656,4.7683,4.7686,4.7673,4.7649,4.7669,4.7666,4.7644,4.7698,4.7674,4.7679,4.771,4.7763,4.7767,4.7772,4.7818,4.7829,4.7838,0,0,0,0,0,0,4.7638,4.7637,4.7624,4.7669,4.7677,4.7676,4.7701,4.7684,4.7698,4.7693,4.7675,4.7676,4.7715,4.7716,4.7689,4.776,4.7726,4.7732,4.7759,4.7769,4.7777,4.7777,4.7649,0,0,0,0,0,4.7653,4.7676,4.7673,4.7713,4.7718,4.7709,4.772,4.7709,4.7716,4.7719,4.7718,4.7725,4.7743,4.7756,4.7772,4.7821,4.7821,4.7844,4.7852,4.7859,4.7865,4.7892,4.7903,4.7789,4.7789,4.7789,0,0,4.7684,4.7687,4.7702,4.7722,4.7727,4.7751,4.7712,4.7738,4.7756,4.7723,4.7757,4.7757,4.7763,4.7806,4.7824,4.7807,4.7896,4.7865,4.7871,4.7873,4.7898,4.7909,4.7918,4.7793,4.7792,4.7792,0,0,4.7754,4.7757,4.7792,4.7798,4.7806,4.7799,4.7808,4.781,4.7809,4.7843,4.7819,4.7839,4.7871,4.7877,4.7884,4.7956,4.7937,4.7962,4.8005,4.8032,4.8041,4.8048,4.8076,4.8085,4.7967,4.7967,4.7967,0,4.7791,4.7827,4.7811,4.784,4.785,4.7822,4.7857,4.7862,4.7875,4.7883,4.7863,4.7903,4.7905,4.795,4.7968,4.7974,4.7983,4.7962,4.8041,4.8048,4.8055,4.8081,4.8091,4.7971,4.797,4.797,4.797,0,4.7874,4.7898,4.7925,4.794,4.7952,4.7984,4.7973,4.7987,4.7975,4.7971,4.8006,4.8008,4.8025,4.8034,4.8021,4.8077,4.8066,4.8044,4.8009,4.807,4.8094,4.8103,4.7975,4.7974,4.7973,4.7972,0,0,4.7972,4.7978,4.7988,4.7995,4.8002,4.802,4.805,4.8068,4.8081,4.809,4.8116,4.8143,4.8123,4.8131,4.8119,4.8142,4.8201,4.8117,4.8117,4.8134,4.8263,4.8282,4.8293,4.8187,4.8189,4.8191,4.8263,0,4.8042,4.8095,4.8082,4.8135,4.8158,4.8131,4.8157,4.8164,4.8161,4.8179,4.8175,4.8196,4.8166,4.8172,4.8193,4.8189,4.8227,4.8183,4.8211,4.8213,4.8213,4.8305,4.8325,4.8393,4.8272,4.8274,4.8275,0,4.8131,4.8146,4.8201,4.8205,4.8214,4.8238,4.8254,4.8271,4.8278,4.8274,4.8284,4.8267,4.8296,4.8261,4.8301,4.8272,4.8282,4.8282,4.8285,4.8288,4.8249,4.8313,4.8415,4.8426,4.8289,4.8288,4.8287,0,4.82,4.8233,4.827,4.8277,4.8281,4.8299,4.8302,4.8307,4.8319,4.8331,4.8339,4.8355,4.8364,4.8376,4.8364,4.8339,4.8407,4.837,4.8405,4.8405,4.8422,4.8421,4.8529,4.8426,4.8425,4.8425,4.8425,0,4.8281,4.8316,4.8302,4.8325,4.8364,4.8348,4.8386,4.8385,4.839,4.8413,4.8389,4.8411,4.8393,4.8412,4.8403,4.8439,4.8442,4.844,4.8437,4.8443,4.8444,4.8451,4.8447,4.8428,4.8427,4.8427,4.8426,0,4.8365,4.8357,4.8396,4.8398,4.8399,4.8428,4.8429,4.845,4.8445,4.8473,4.8479,4.8471,4.8493,4.8482,4.8504,4.8497,4.8544,4.8534,4.8543,4.8541,4.8577,4.8575,4.8694,4.871,4.8595,4.8596,4.8597,0,4.8418,4.8445,4.845,4.8464,4.8468,4.8491,4.8503,4.8488,4.8501,4.8511,4.8532,4.8552,4.8567,4.8604,4.8599,4.8616,4.8608,4.8648,4.861,4.8616,4.861,4.861,4.8613,4.8657,4.8658,4.8659,4.866,0,4.8514,4.8509,4.8528,4.8546,4.8561,4.8574,4.8584,4.8597,4.8582,4.8598,4.8621,4.8633,4.8657,4.8677,4.8692,4.8694,4.8675,4.8672,4.8681,4.8688,4.8693,4.8693,4.8566,4.8669,4.8668,4.8668,4.8667,4.8667,4.8585,4.8609,4.8616,4.8638,4.8645,4.8655,4.8676,4.8674,4.8693,4.8712,4.8701,4.8728,4.8734,4.8752,4.8757,4.8777,4.8761,4.8774,4.8778,4.8782,4.8788,4.8688,4.878,4.8779,4.8779,4.8779,4.8779,0,4.8682,4.8685,4.8706,4.8722,4.874,4.872,4.8731,4.8747,4.8771,4.8779,4.8795,4.8821,4.8841,4.8838,4.8856,4.8873,4.8865,4.8879,4.8878,4.8879,4.88,4.8791,4.8885,4.8885,4.8885,4.8885,4.8885,4.8885,4.8734,4.8773,4.8768,4.881,4.8812,4.884,4.8848,4.8858,4.8864,4.8895,4.8912,4.891,4.8913,4.8931,4.8949,4.8947,4.8956,4.8973,4.8969,4.8895,4.8885,4.8875,4.8866,4.8975,4.8975,4.9046,4.9047,4.9047]}]]